Indianapolis, IN

7:44 AM EDT on October 14, 2019 (GMT -0400)
Indianapolis International

Weather History for KIND - June, 2019

Change the Weather History Date:

Sunday, June 2, 2019

  Actual Average Record
Temperature  
Mean Temperature 66 °F 68 °F  
Max Temperature 76 °F 78 °F 100 °F (1934)
Min Temperature 56 °F 58 °F 39 °F (1956)
Degree Days  
Heating Degree Days 0 2  
Month to date heating degree days 0 4  
Since 1 June heating degree days 0 4  
Since 1 July heating degree days 5376 5366  
Cooling Degree Days 1 5  
Month to date cooling degree days 7 10  
Year to date cooling degree days 118 94  
Since 1 June cooling degree days 7 10  
Growing Degree Days 18 (Base 50)    
Moisture  
Dew Point 53 °F    
Average Humidity 62    
Maximum Humidity 87    
Minimum Humidity 37    
Precipitation  
Precipitation 0.00 in 0.15 in 3.00 in (1941)
Month to date precipitation 0.00 0.29  
Year to date precipitation 21.64 17.69  
Snow  
Snow 0.00 in 0.00 in 0.00 in ()
Month to date snowfall 0.0 0.0  
Since 1 June snowfall 0.0 0.0  
Since 1 July snowfall 19.4 25.9  
Snow Depth 0.00 in    
Sea Level Pressure  
Sea Level Pressure 29.86 in    
Wind  
Wind Speed 10 mph (NNW)    
Max Wind Speed 18 mph    
Max Gust Speed 27 mph    
Visibility 10 miles    
Events      
T = Trace of Precipitation, MM = Missing Value Source: NWS Daily Summary

Daily Weather History Graph

Daily Weather History Graph

Search for Another Location

Airport or City:

Astronomy

Jun. 02, 2019 Rise Set
Actual Time 6:18 AM EDT 9:07 PM EDT
Civil Twilight 5:46 AM EDT 9:39 PM EDT
Nautical Twilight 5:06 AM EDT 10:20 PM EDT
Astronomical Twilight 4:20 AM EDT 11:06 PM EDT
Moon 5:58 AM EDT (6/2) 8:26 PM EDT (6/2)
Length of Visible Light 15h 52m
Length of Day
14h 48m
Waning Crescent, 1% of the Moon is Illuminated
Jun 2
Waning Crescent
Jun 3
New
Jun 10
First Quarter
Jun 17
Full
Jun 25
Last Quarter

Hourly Weather History & Observations

Time (EDT) Temp. Dew Point Humidity Pressure Visibility Wind Dir Wind Speed Gust Speed Precip Events Conditions
12:54 AM 70.0 °F 61.0 °F 73% 29.75 in 10.0 mi SW 9.2 mph - N/A   Scattered Clouds
1:54 AM 70.0 °F 61.0 °F 73% 29.77 in 10.0 mi NW 5.8 mph - N/A   Mostly Cloudy
2:54 AM 68.0 °F 61.0 °F 78% 29.75 in 10.0 mi WSW 4.6 mph - N/A   Mostly Cloudy
3:54 AM 66.0 °F 61.0 °F 84% 29.74 in 10.0 mi SW 6.9 mph - N/A   Mostly Cloudy
4:54 AM 66.0 °F 61.0 °F 84% 29.75 in 10.0 mi West 4.6 mph - N/A   Scattered Clouds
5:54 AM 66.9 °F 61.0 °F 81% 29.75 in 10.0 mi NNW 4.6 mph - N/A   Mostly Cloudy
6:54 AM 64.9 °F 61.0 °F 87% 29.78 in 10.0 mi NW 5.8 mph - N/A   Mostly Cloudy
7:54 AM 66.0 °F 60.1 °F 81% 29.80 in 10.0 mi North 12.7 mph - N/A   Partly Cloudy
8:54 AM 68.0 °F 59.0 °F 73% 29.83 in 10.0 mi North 10.4 mph - N/A   Scattered Clouds
9:54 AM 69.1 °F 57.9 °F 68% 29.85 in 10.0 mi North 11.5 mph - N/A   Scattered Clouds
10:54 AM 71.1 °F 57.0 °F 61% 29.86 in 10.0 mi NNW 13.8 mph - N/A   Scattered Clouds
11:54 AM 72.0 °F 57.9 °F 61% 29.88 in 10.0 mi NW 15.0 mph - N/A   Partly Cloudy
12:54 PM 73.0 °F 55.9 °F 55% 29.90 in 10.0 mi NNW 11.5 mph - N/A   Partly Cloudy
1:54 PM 73.9 °F 51.1 °F 45% 29.90 in 10.0 mi NW 11.5 mph - N/A   Partly Cloudy
2:54 PM 75.0 °F 50.0 °F 41% 29.90 in 10.0 mi WNW 6.9 mph 23.0 mph N/A   Partly Cloudy
3:54 PM 75.0 °F 48.0 °F 38% 29.90 in 10.0 mi NW 9.2 mph 21.9 mph N/A   Partly Cloudy
4:54 PM 75.9 °F 48.0 °F 37% 29.91 in 10.0 mi NW 12.7 mph - N/A   Scattered Clouds
5:54 PM 75.0 °F 50.0 °F 41% 29.91 in 10.0 mi NNW 15.0 mph 20.7 mph N/A   Scattered Clouds
6:54 PM 72.0 °F 48.0 °F 43% 29.92 in 10.0 mi North 13.8 mph 23.0 mph N/A   Scattered Clouds
7:54 PM 70.0 °F 46.9 °F 44% 29.94 in 10.0 mi North 16.1 mph - N/A   Scattered Clouds
8:54 PM 66.9 °F 43.0 °F 42% 29.96 in 10.0 mi North 12.7 mph - N/A   Scattered Clouds
9:54 PM 64.0 °F 37.0 °F 37% 29.98 in 10.0 mi NNE 13.8 mph - N/A   Partly Cloudy
10:54 PM 61.0 °F 37.0 °F 41% 30.00 in 10.0 mi North 6.9 mph - N/A   Clear
11:54 PM 61.0 °F 36.0 °F 39% 30.00 in 10.0 mi NNE 4.6 mph - N/A   Clear